Flag for U.S.A. Weather past 2 weeks in Tuba City, Arizona, U.S.A.

Now
54 °F

Clear.


Feels Like: 54 °F
Forecast: 62 / 85 °F
Wind: No wind

Location: Grand Canyon National Park Airport

Current Time: Aug 30, 2015 at 12:56:22 AM

Latest Report: Aug 29, 2015 at 11:54 PM


Visibility: 10 mi

Pressure: 29.96 "Hg (25.01 "Hg at 1510m altitude)

Humidity: 72%

Dew point: 45 °F

Location of Tuba CityLocation

Historic Weather in Tuba City — Graph

°F

Tuba City temperature yesterday

Maximum temperature yesterday: 84 °F (at 11:54 AM)
Minimum temperature yesterday: 47 °F (at 3:54 AM)
Average temperature yesterday: 66 °F

Past Weeks' High & Low Weather Summary

 TemperatureHumidityPressure
High88 °F (Aug 17, 2:54 PM)97% (Aug 26, 11:01 PM)30.40 "Hg (Aug 26, 11:01 PM)
Low44 °F (Aug 19, 6:54 AM)13% (Aug 19, 4:54 PM)29.80 "Hg (Aug 18, 5:54 PM)
Average67 °F53%29.99 "Hg
* Reported Aug 14 10:54 PM — Aug 29 10:54 PM, Tuba City, Weather by CustomWeather, © 2015

Note: Actual official high and low records may vary slightly from our data, if they occured in-between our weather recording intervals... More about our weather records

Advertising

Tuba City weather history for previous 24 hours

 ConditionsComfort  
Time TempWeatherWind HumidityBarometerVisibility
10:54 PM
Sat, Aug 29
56 °FClear.No wind67%29.97 "Hg10 mi
9:54 PM60 °FClear.No wind60%29.96 "Hg10 mi
8:54 PM63 °FClear.No wind56%29.97 "Hg10 mi
7:54 PM73 °FSunny.No wind41%29.99 "Hg10 mi
6:54 PM76 °FPartly sunny.6 mph37%30.01 "Hg10 mi
5:54 PM75 °FPartly sunny.9 mph40%30.03 "Hg10 mi
4:54 PM82 °FPartly sunny.10 mph24%29.98 "Hg10 mi
3:54 PM83 °FScattered clouds.3 mph22%29.99 "Hg10 mi
2:54 PM84 °FOvercast.3 mph22%30.00 "Hg10 mi
1:54 PM84 °FScattered clouds.12 mph19%30.01 "Hg10 mi
12:54 PM84 °FPassing clouds.5 mph21%30.02 "Hg10 mi
11:54 AM84 °FPassing clouds.12 mph22%30.02 "Hg10 mi
10:54 AM82 °FSunny.9 mph22%30.03 "Hg10 mi
9:54 AM79 °FSunny.8 mph27%30.02 "Hg10 mi
8:54 AM72 °FSunny.No wind37%30.03 "Hg10 mi
7:54 AM53 °FSunny.3 mph69%30.06 "Hg10 mi
6:54 AM47 °FClear.No wind77%30.03 "Hg10 mi
5:54 AM47 °FClear.No wind77%30.03 "Hg10 mi
4:54 AM47 °FClear.3 mph74%30.02 "Hg10 mi
3:54 AM47 °FClear.No wind77%30.02 "Hg10 mi
2:54 AM50 °FClear.No wind74%30.03 "Hg10 mi
1:54 AM50 °FClear.5 mph74%30.04 "Hg10 mi
12:54 AM51 °FClear.No wind71%30.03 "Hg10 mi
Weather by CustomWeather, © 2015

See weather overviewHow to use our weather pages